Location: Sternwarte ZA, Rosenfeld-Brittheim
(48.2889°N, 8.6789°E)
Time: 20:03:10
(UTC+02:00)

ISS - Pass Details

Date: 16 July 2019
Orbit: 409 x 418 km, 51.6° (Epoch: 20 July)

Event Time Altitude Azimuth Distance (km) Brightness Sun altitude
Rises 23:03:55 0° 222° (SW) 2,343 -0.1 -13.0°
Reaches altitude 10° 23:06:06 10° 213° (SSW) 1,482 -1.2 -13.2°
Maximum altitude 23:09:10 35° 146° (SE) 688 -3.2 -13.5°
Drops below altitude 10° 23:12:14 10° 78° (ENE) 1,485 -1.2 -13.8°
Sets 23:14:26 0° 70° (ENE) 2,349 -0.1 -14.0°
